| time (UTC) | temp F | wind direction | speed MPH | gust MPH | rain 1hr in | rain 24hr in | rain mn in | humidity % | barometer mb |
| 20260507234557 | 47 | 305 | 2.0 | 11.0 | 0.00 | 0.00 | 0.00 | 39 | 1008.3 |
| 20260507233055 | 48 | 207 | 2.0 | 10.0 | 0.00 | 0.00 | 0.00 | 38 | 1008.2 |
| 20260507231557 | 49 | 13 | 8.0 | 23.0 | 0.00 | 0.00 | 0.00 | 36 | 1008.1 |
| 20260507230057 | 49 | 286 | 2.0 | 14.0 | 0.00 | 0.00 | 0.00 | 38 | 1008.5 |
| 20260507224555 | 48 | 263 | 2.0 | 10.0 | 0.00 | 0.00 | 0.00 | 40 | 1008.4 |
| 20260507223058 | 47 | 55 | 2.0 | 9.0 | 0.00 | 0.00 | 0.00 | 39 | 1008.3 |
| 20260507221552 | 48 | 0 | 5.0 | 11.0 | 0.00 | 0.00 | 0.00 | 37 | 1008.4 |
| 20260507220055 | 48 | 10 | 2.0 | 10.0 | 0.00 | 0.00 | 0.00 | 41 | 1008.4 |
| 20260507214556 | 48 | 271 | 4.0 | 19.0 | 0.00 | 0.00 | 0.00 | 40 | 1008.5 |
| 20260507213056 | 48 | 259 | 4.0 | 13.0 | 0.00 | 0.00 | 0.00 | 38 | 1008.6 |
| 20260507211554 | 48 | 360 | 3.0 | 11.0 | 0.00 | 0.00 | 0.00 | 40 | 1008.6 |
| 20260507210050 | 49 | 252 | 4.0 | 17.0 | 0.00 | 0.00 | 0.00 | 40 | 1008.8 |
| 20260507204550 | 49 | 297 | 4.0 | 16.0 | 0.00 | 0.00 | 0.00 | 39 | 1008.7 |
| 20260507203053 | 48 | 267 | 4.0 | 14.0 | 0.00 | 0.00 | 0.00 | 40 | 1008.8 |
| 20260507201552 | 47 | 317 | 3.0 | 10.0 | 0.00 | 0.00 | 0.00 | 46 | 1009.0 |
| 20260507200055 | 47 | 254 | 3.0 | 9.0 | 0.00 | 0.00 | 0.00 | 43 | 1008.9 |
| 20260507194556 | 46 | 333 | 2.0 | 13.0 | 0.00 | 0.00 | 0.00 | 45 | 1008.9 |
| 20260507193052 | 46 | 311 | 3.0 | 12.0 | 0.00 | 0.00 | 0.00 | 45 | 1008.9 |
| 20260507191602 | 48 | 360 | 5.0 | 11.0 | 0.00 | 0.00 | 0.00 | 47 | 1008.8 |
| 20260507190055 | 47 | 0 | 2.0 | 10.0 | 0.00 | 0.00 | 0.00 | 49 | 1009.0 |
| 20260507184556 | 45 | 265 | 3.0 | 10.0 | 0.00 | 0.00 | 0.00 | 52 | 1009.3 |
| 20260507183101 | 44 | 11 | 2.0 | 8.0 | 0.00 | 0.00 | 0.00 | 56 | 1009.4 |
| 20260507181555 | 43 | 279 | 3.0 | 10.0 | 0.00 | 0.00 | 0.00 | 55 | 1009.4 |
| 20260507180057 | 44 | 296 | 1.0 | 7.0 | 0.00 | 0.00 | 0.00 | 54 | 1009.5 |
| 20260507174554 | 45 | 246 | 2.0 | 10.0 | 0.00 | 0.00 | 0.00 | 55 | 1009.5 |
| 20260507173103 | 44 | 292 | 3.0 | 9.0 | 0.00 | 0.00 | 0.00 | 55 | 1009.7 |
| 20260507171555 | 44 | 284 | 2.0 | 12.0 | 0.00 | 0.00 | 0.00 | 55 | 1009.8 |
| 20260507170055 | 43 | 292 | 2.0 | 9.0 | 0.00 | 0.00 | 0.00 | 55 | 1009.7 |
| 20260507164554 | 42 | 257 | 2.0 | 11.0 | 0.00 | 0.00 | 0.00 | 59 | 1010.0 |
| 20260507163058 | 43 | 213 | 3.0 | 10.0 | 0.00 | 0.00 | 0.00 | 54 | 1009.8 |
| 20260507161559 | 43 | 241 | 4.0 | 12.0 | 0.00 | 0.00 | 0.00 | 53 | 1010.1 |
| 20260507160057 | 43 | 297 | 3.0 | 16.0 | 0.00 | 0.00 | 0.00 | 53 | 1010.1 |
| 20260507154559 | 44 | 349 | 2.0 | 10.0 | 0.00 | 0.00 | 0.00 | 56 | 1010.2 |
| 20260507153102 | 44 | 279 | 3.0 | 11.0 | 0.00 | 0.00 | 0.00 | 56 | 1010.2 |
| 20260507151552 | 43 | 265 | 3.0 | 10.0 | 0.00 | 0.00 | 0.00 | 59 | 1010.2 |
| 20260507150105 | 43 | 240 | 3.0 | 9.0 | 0.00 | 0.00 | 0.00 | 59 | 1010.4 |
| 20260507144556 | 43 | 257 | 4.0 | 14.0 | 0.00 | 0.00 | 0.00 | 59 | 1010.5 |
| 20260507143105 | 42 | 269 | 2.0 | 7.0 | 0.00 | 0.00 | 0.00 | 62 | 1010.8 |
| 20260507141557 | 41 | 82 | 2.0 | 11.0 | 0.00 | 0.00 | 0.00 | 64 | 1010.6 |
| 20260507140056 | 39 | 14 | 3.0 | 9.0 | 0.00 | 0.00 | 0.00 | 67 | 1010.9 |
| 20260507134601 | 38 | 313 | 4.0 | 11.0 | 0.00 | 0.00 | 0.00 | 69 | 1010.9 |
| 20260507133100 | 38 | 263 | 3.0 | 9.0 | 0.00 | 0.00 | 0.00 | 72 | 1010.8 |
| 20260507131557 | 35 | 276 | 1.0 | 4.0 | 0.00 | 0.00 | 0.00 | 78 | 1010.8 |
| 20260507124556 | 31 | 234 | 1.0 | 4.0 | 0.00 | 0.00 | 0.00 | 85 | 1010.9 |
| 20260507123053 | 29 | 0 | 0.0 | 0.0 | 0.00 | 0.00 | 0.00 | 88 | 1011.0 |
| 20260507121601 | 28 | 0 | 0.0 | 0.0 | 0.00 | 0.00 | 0.00 | 91 | 1011.0 |
| 20260507120056 | 26 | 0 | 0.0 | 0.0 | 0.00 | 0.00 | 0.00 | 92 | 1011.0 |
| 20260507114559 | 24 | 0 | 0.0 | 0.0 | 0.00 | 0.00 | 0.00 | 93 | 1010.9 |
| 20260507113052 | 22 | 0 | 0.0 | 0.0 | 0.00 | 0.00 | 0.00 | 92 | 1010.7 |
| 20260507111551 | 22 | 0 | 0.0 | 0.0 | 0.00 | 0.00 | 0.00 | 92 | 1010.9 |
| 20260507110059 | 22 | 0 | 0.0 | 0.0 | 0.00 | 0.00 | 0.00 | 91 | 1010.7 |
| 20260507104555 | 22 | 0 | 0.0 | 0.0 | 0.00 | 0.00 | 0.00 | 90 | 1010.8 |
| 20260507103115 | 22 | 0 | 0.0 | 0.0 | 0.00 | 0.00 | 0.00 | 91 | 1011.0 |
| 20260507101556 | 22 | 0 | 0.0 | 0.0 | 0.00 | 0.00 | 0.00 | 91 | 1010.7 |
| 20260507100110 | 23 | 0 | 0.0 | 0.0 | 0.00 | 0.00 | 0.00 | 90 | 1010.9 |
| 20260507094601 | 23 | 0 | 0.0 | 0.0 | 0.00 | 0.00 | 0.00 | 89 | 1011.0 |
| 20260507093051 | 23 | 0 | 0.0 | 0.0 | 0.00 | 0.00 | 0.00 | 89 | 1011.1 |
| 20260507091556 | 24 | 0 | 0.0 | 0.0 | 0.00 | 0.00 | 0.00 | 89 | 1011.0 |
| 20260507090058 | 24 | 0 | 0.0 | 0.0 | 0.00 | 0.00 | 0.00 | 88 | 1011.1 |
| 20260507084605 | 25 | 0 | 0.0 | 0.0 | 0.00 | 0.00 | 0.00 | 88 | 1011.0 |
| 20260507083056 | 25 | 0 | 0.0 | 0.0 | 0.00 | 0.00 | 0.00 | 88 | 1011.1 |
| 20260507081555 | 25 | 0 | 0.0 | 0.0 | 0.00 | 0.00 | 0.00 | 87 | 1011.1 |
| 20260507080054 | 26 | 0 | 0.0 | 0.0 | 0.00 | 0.00 | 0.00 | 86 | 1011.2 |
| 20260507074602 | 26 | 0 | 0.0 | 0.0 | 0.00 | 0.00 | 0.00 | 86 | 1011.2 |
| 20260507073052 | 27 | 0 | 0.0 | 0.0 | 0.00 | 0.00 | 0.00 | 85 | 1011.4 |
| 20260507071550 | 27 | 0 | 0.0 | 0.0 | 0.00 | 0.00 | 0.00 | 83 | 1011.5 |
| 20260507070106 | 28 | 0 | 0.0 | 0.0 | 0.00 | 0.00 | 0.00 | 82 | 1011.7 |
| 20260507064556 | 29 | 0 | 0.0 | 0.0 | 0.00 | 0.00 | 0.00 | 81 | 1011.7 |
| 20260507063052 | 31 | 0 | 0.0 | 0.0 | 0.00 | 0.00 | 0.00 | 78 | 1011.9 |
| 20260507061552 | 33 | 0 | 0.0 | 0.0 | 0.00 | 0.00 | 0.00 | 76 | 1011.9 |
| 20260507060058 | 34 | 0 | 0.0 | 0.0 | 0.00 | 0.00 | 0.00 | 76 | 1012.0 |
| 20260507054609 | 34 | 0 | 0.0 | 2.0 | 0.00 | 0.00 | 0.00 | 75 | 1012.1 |
| 20260507053059 | 34 | 0 | 0.0 | 3.0 | 0.00 | 0.00 | 0.00 | 75 | 1012.3 |
| 20260507051555 | 34 | 0 | 0.0 | 2.0 | 0.00 | 0.00 | 0.00 | 76 | 1012.3 |
| 20260507050056 | 34 | 0 | 0.0 | 2.0 | 0.00 | 0.00 | 0.00 | 75 | 1012.4 |
| 20260507044557 | 35 | 0 | 0.0 | 2.0 | 0.00 | 0.00 | 0.00 | 76 | 1012.5 |
| 20260507043050 | 35 | 0 | 0.0 | 2.0 | 0.00 | 0.00 | 0.00 | 75 | 1012.5 |
| 20260507041600 | 35 | 0 | 0.0 | 0.0 | 0.00 | 0.00 | 0.00 | 74 | 1012.8 |
| 20260507040054 | 35 | 0 | 0.0 | 0.0 | 0.00 | 0.00 | 0.00 | 75 | 1012.9 |
| 20260507034600 | 35 | 0 | 0.0 | 2.0 | 0.00 | 0.00 | 0.00 | 73 | 1012.8 |
| 20260507033056 | 35 | 0 | 0.0 | 5.0 | 0.00 | 0.00 | 0.00 | 73 | 1012.9 |
| 20260507031555 | 35 | 0 | 1.0 | 3.0 | 0.00 | 0.00 | 0.00 | 73 | 1013.1 |
| 20260507030052 | 35 | 0 | 0.0 | 3.0 | 0.00 | 0.00 | 0.00 | 73 | 1013.1 |
| 20260507024557 | 35 | 0 | 0.0 | 4.0 | 0.00 | 0.00 | 0.00 | 72 | 1013.1 |
| 20260507023051 | 35 | 0 | 0.0 | 6.0 | 0.00 | 0.00 | 0.00 | 71 | 1013.1 |
| 20260507021604 | 35 | 0 | 0.0 | 0.0 | 0.00 | 0.00 | 0.00 | 72 | 1013.2 |
| 20260507020108 | 36 | 0 | 0.0 | 3.0 | 0.00 | 0.00 | 0.00 | 71 | 1013.1 |
| 20260507014619 | 36 | 271 | 0.0 | 6.0 | 0.00 | 0.00 | 0.00 | 71 | 1013.0 |
| 20260507013056 | 36 | 290 | 0.0 | 4.0 | 0.00 | 0.00 | 0.00 | 70 | 1013.1 |
| 20260507011558 | 36 | 0 | 0.0 | 4.0 | 0.00 | 0.00 | 0.00 | 69 | 1013.0 |
| 20260507010055 | 37 | 209 | 0.0 | 5.0 | 0.00 | 0.00 | 0.00 | 69 | 1013.0 |
| 20260507004552 | 37 | 284 | 2.0 | 10.0 | 0.00 | 0.00 | 0.00 | 67 | 1013.0 |
| 20260507003054 | 37 | 216 | 1.0 | 7.0 | 0.00 | 0.00 | 0.00 | 67 | 1013.0 |
| 20260507001606 | 38 | 300 | 1.0 | 6.0 | 0.00 | 0.00 | 0.00 | 65 | 1013.0 |
| 20260507000123 | 38 | 275 | 2.0 | 8.0 | 0.00 | 0.00 | 0.00 | 64 | 1013.0 |